Inquirer Daily News

Weather

Get conditions and forecasts for any City, State, ZIP code or Country:  
Trenton, NJ
on Monday, February 18, 2013

Monday
Previous Day Next Day
Daily Summary
 ActualAverageRecord
Temperature
Mean Temperature °F 34°F  
Max Temperature 36°F 43°F 72°F (1890)
Min Temperature 18°F 26°F -1°F (1979)
Degree Days
Heating Degree Days 38 30  
Month to date heating degree days 609 575  
Since 1 July heating degree days 3317 3521  
Cooling Degree Days 0 0  
Month to date cooling degree days 0 0  
Year to date cooling degree days 0 0  
Moisture
Dew Point 6°F   
Average Humidity 41    
Maximum Humidity 49    
Minimum Humidity 32    
Precipitation
Precipitation 0.00 in 0.08 in 1.14 in (1956)
Month to date precipitation 0.95 1.40  
Year to date precipitation 3.77 4.56  
Wind
Wind Speed 10 mph   
Max Wind Speed 22 mph   
Max Gust Speed 36 mph   
Visibility 10 miles   
Events     

Key: T is trace of precipitation, MM is missing value
Source: NWS Daily Summary
Time(EST)TemperatureDew PointHumidity Pressure Visibility Wind DirectionWind SpeedGust SpeedPrecipitationEvents Conditions
12:53 AM 19.0°F -0.0°F 43% 30.06 in 10.0 miles North 19.6 mph 29.9 mph N/A   Clear
1:53 AM 19.0°F 1.0°F 46% 30.08 in 10.0 miles NNW 15.0 mph 31.1 mph N/A   Clear
2:53 AM 19.0°F 1.0°F 46% 30.11 in 10.0 miles NNW 17.3 mph 27.6 mph N/A   Clear
3:53 AM 18.0°F 1.0°F 48% 30.11 in 10.0 miles NW 16.1 mph 23.0 mph N/A   Clear
4:53 AM 18.0°F 1.9°F 50% 30.16 in 10.0 miles NNW 13.8 mph 23.0 mph N/A   Clear
5:53 AM 18.0°F 1.9°F 50% 30.18 in 10.0 miles NNW 9.2 mph 17.3 mph N/A   Clear
6:53 AM 18.0°F 1.9°F 50% 30.22 in 10.0 miles NW 9.2 mph - N/A   Clear
7:53 AM 19.9°F 1.9°F 46% 30.25 in 10.0 miles NW 10.4 mph 18.4 mph N/A   Clear
8:53 AM 21.9°F 1.9°F 42% 30.26 in 10.0 miles NW 16.1 mph 23.0 mph N/A   Clear
9:53 AM 24.1°F 3.0°F 40% 30.27 in 10.0 miles NNW 9.2 mph 18.4 mph N/A   Clear
10:53 AM 26.1°F 3.9°F 39% 30.28 in 10.0 miles NW 11.5 mph 23.0 mph N/A   Clear
11:53 AM 28.9°F 5.0°F 36% 30.27 in 10.0 miles NW 13.8 mph 23.0 mph N/A   Clear
12:53 PM 30.9°F 7.0°F 37% 30.24 in 10.0 miles NNW 15.0 mph 19.6 mph N/A   Clear
1:53 PM 33.1°F 7.0°F 34% 30.21 in 10.0 miles NW 11.5 mph 19.6 mph N/A   Clear
2:53 PM 35.1°F 8.1°F 33% 30.20 in 10.0 miles NNW 10.4 mph 17.3 mph N/A   Clear
3:53 PM 35.1°F 9.0°F 34% 30.21 in 10.0 miles West 9.2 mph - N/A   Clear
4:53 PM 34.0°F 9.0°F 35% 30.20 in 10.0 miles West 6.9 mph - N/A   Clear
5:53 PM 33.1°F 9.0°F 37% 30.21 in 10.0 miles West 3.5 mph - N/A   Clear
6:53 PM 32.0°F 10.9°F 42% 30.22 in 10.0 miles WSW 3.5 mph - N/A   Clear
7:53 PM 30.9°F 10.9°F 43% 30.22 in 10.0 miles West 3.5 mph - N/A   Clear
8:53 PM 30.0°F 10.9°F 45% 30.21 in 10.0 miles WSW 4.6 mph - N/A   Clear
9:53 PM 30.0°F 12.0°F 47% 30.21 in 10.0 miles WSW 3.5 mph - N/A   Clear
10:53 PM 30.0°F 12.9°F 49% 30.19 in 10.0 miles Calm Calm - N/A   Clear
Astronomy
Sunrise:06:48 AM (EST) Moon Rise:11:22 AM (EST)
Sunset:05:38 PM (EST) Moon Set:01:26 AM (EST)
Moon Phase
Feb. 18 Feb. 25 Mar. 04 Mar. 11 Mar. 19

Copyright © 2014 The Weather Underground, Inc.